G8PZT-1 Weather Reports


time (UTC)temp
C
wind
direction
speed
KPH
gust
KPH
rain 1hr
cm
rain 24hr
cm
rain mn
cm
humidity
%
barometer
mb
20260510204529 12 80 33.8 33.8 0.00 0.00 0.00 82 1015.0
20260510203529 12 80 33.8 33.8 0.00 0.00 0.00 82 1015.0
20260510201530 12 80 33.8 33.8 0.00 0.00 0.00 82 1015.0
20260510200530 12 80 33.8 33.8 0.00 0.00 0.00 82 1015.0
20260510194530 12 80 33.8 33.8 0.00 0.00 0.00 82 1015.0
20260510193530 12 80 33.8 33.8 0.00 0.00 0.00 82 1015.0
20260510191529 12 80 33.8 33.8 0.00 0.00 0.00 82 1014.0
20260510190532 12 80 33.8 33.8 0.00 0.00 0.00 82 1014.0
20260510185529 12 80 33.8 33.8 0.00 0.00 0.00 82 1014.0
20260510184529 12 80 33.8 33.8 0.00 0.00 0.00 82 1014.0
20260510183529 12 80 33.8 33.8 0.00 0.00 0.00 82 1014.0
20260510182529 12 80 33.8 33.8 0.00 0.00 0.00 82 1014.0
20260510181530 12 80 33.8 33.8 0.00 0.00 0.00 82 1014.0
20260510180530 12 80 33.8 33.8 0.00 0.00 0.00 82 1014.0
20260510175530 12 80 33.8 33.8 0.00 0.00 0.00 82 1014.0
20260510174530 12 80 33.8 33.8 0.00 0.00 0.00 82 1014.0
20260510173530 12 80 33.8 33.8 0.00 0.00 0.00 82 1014.0
20260510172529 12 80 33.8 33.8 0.00 0.00 0.00 82 1014.0
20260510171529 12 80 33.8 33.8 0.00 0.00 0.00 82 1014.0
20260510165529 12 80 33.8 33.8 0.00 0.00 0.00 82 1014.0
20260510164529 12 80 33.8 33.8 0.00 0.00 0.00 82 1014.0
20260510163529 12 80 33.8 33.8 0.00 0.00 0.00 82 1014.0
20260510162447 12 80 33.8 33.8 0.00 0.00 0.00 82 1014.0
20260510161447 12 80 33.8 33.8 0.00 0.00 0.00 82 1014.0
20260510160447 12 80 33.8 33.8 0.00 0.00 0.00 82 1014.0
20260510155447 12 80 33.8 33.8 0.00 0.00 0.00 82 1014.0
20260510153448 12 80 33.8 33.8 0.00 0.00 0.00 82 1014.0
20260510152448 12 80 33.8 33.8 0.00 0.00 0.00 82 1014.0
20260510151448 12 80 33.8 33.8 0.00 0.00 0.00 82 1014.0
20260510150448 12 80 33.8 33.8 0.00 0.00 0.00 82 1014.0
20260510145448 12 80 33.8 33.8 0.00 0.00 0.00 82 1014.0
20260510144447 12 80 33.8 33.8 0.00 0.00 0.00 82 1014.0
20260510143447 12 80 33.8 33.8 0.00 0.00 0.00 82 1014.0
20260510142447 12 80 33.8 33.8 0.00 0.00 0.00 82 1014.0
20260510141447 12 80 33.8 33.8 0.00 0.00 0.00 82 1014.0
20260510140448 12 80 33.8 33.8 0.00 0.00 0.00 82 1014.0
20260510135447 12 80 33.8 33.8 0.00 0.00 0.00 82 1014.0
20260510134447 12 80 33.8 33.8 0.00 0.00 0.00 82 1014.0
20260510133448 12 80 33.8 33.8 0.00 0.00 0.00 82 1015.0
20260510132448 12 80 33.8 33.8 0.00 0.00 0.00 82 1015.0
20260510131448 12 80 33.8 33.8 0.00 0.00 0.00 82 1015.0
20260510130448 12 80 33.8 33.8 0.00 0.00 0.00 82 1015.0
20260510125448 12 80 33.8 33.8 0.00 0.00 0.00 82 1015.0
20260510123447 12 80 33.8 33.8 0.00 0.00 0.00 82 1015.0
20260510122447 12 80 33.8 33.8 0.00 0.00 0.00 82 1015.0
20260510121447 12 80 33.8 33.8 0.00 0.00 0.00 82 1015.0
20260510120447 12 70 29.0 30.6 0.00 0.00 0.00 82 1015.0
20260510115447 12 70 29.0 30.6 0.00 0.00 0.00 82 1015.0
20260510114447 12 60 29.0 29.0 0.00 0.00 0.00 82 1015.0
20260510113448 12 60 30.6 30.6 0.00 0.00 0.00 82 1015.0
20260510112448 12 60 30.6 30.6 0.00 0.00 0.00 82 1015.0
20260510111448 12 60 30.6 30.6 0.00 0.00 0.00 82 1015.0
20260510110448 12 60 30.6 30.6 0.00 0.00 0.00 82 1015.0
20260510105448 12 60 30.6 30.6 0.00 0.00 0.00 82 1015.0
20260510104447 12 60 30.6 30.6 0.00 0.00 0.00 82 1015.0
20260510103447 12 60 30.6 30.6 0.00 0.00 0.00 82 1016.0
20260510102447 12 60 30.6 30.6 0.00 0.00 0.00 82 1016.0
20260510101447 12 70 29.0 46.7 0.00 0.00 0.00 82 1016.0
20260510100447 12 70 29.0 46.7 0.00 0.00 0.00 82 1016.0
20260510095447 12 70 29.0 29.0 0.00 0.00 0.00 82 1016.0
20260510094447 12 70 30.6 30.6 0.00 0.00 0.00 82 1016.0
20260510093448 12 70 30.6 30.6 0.00 0.00 0.00 82 1015.0
20260510092448 12 70 30.6 30.6 0.00 0.00 0.00 82 1015.0
20260510091448 12 70 30.6 30.6 0.00 0.00 0.00 82 1015.0
20260510090448 12 60 30.6 30.6 0.00 0.00 0.00 82 1015.0
20260510085448 12 60 30.6 30.6 0.00 0.00 0.00 82 1015.0
20260510084447 12 60 29.0 29.0 0.00 0.00 0.00 82 1015.0
20260510083447 12 60 29.0 29.0 0.00 0.00 0.00 82 1016.0
20260510082447 12 60 29.0 29.0 0.00 0.00 0.00 82 1016.0
20260510081447 12 60 25.7 25.7 0.00 0.00 0.00 82 1016.0
20260510080447 12 60 25.7 25.7 0.00 0.00 0.00 82 1016.0
20260510075447 12 60 25.7 25.7 0.00 0.00 0.00 82 1016.0
20260510074447 12 50 25.7 25.7 0.00 0.00 0.00 82 1016.0
20260510073447 12 50 25.7 25.7 0.00 0.00 0.00 82 1015.0
20260510072448 12 50 25.7 25.7 0.00 0.00 0.00 82 1015.0
20260510071448 12 50 25.7 25.7 0.00 0.00 0.00 82 1015.0
20260510070448 12 40 24.1 24.1 0.00 0.00 0.00 82 1015.0
20260510065448 12 40 24.1 24.1 0.00 0.00 0.00 82 1015.0
20260510064448 12 40 24.1 24.1 0.00 0.00 0.00 82 1015.0
20260510063447 12 40 24.1 24.1 0.00 0.00 0.00 82 1015.0
20260510062447 12 40 24.1 24.1 0.00 0.00 0.00 82 1015.0
20260510061447 12 40 24.1 24.1 0.00 0.00 0.00 82 1015.0
20260510060447 12 40 24.1 24.1 0.00 0.00 0.00 82 1015.0
20260510055447 12 40 24.1 24.1 0.00 0.00 0.00 82 1015.0
20260510054448 12 40 24.1 24.1 0.00 0.00 0.00 82 1015.0
20260510053447 12 40 24.1 24.1 0.00 0.00 0.00 82 1014.0
20260510052447 12 40 24.1 24.1 0.00 0.00 0.00 82 1014.0
20260510051447 12 40 25.7 25.7 0.00 0.00 0.00 82 1014.0
20260510050448 12 40 25.7 25.7 0.00 0.00 0.00 82 1014.0
20260510045448 12 40 25.7 25.7 0.00 0.00 0.00 82 1014.0
20260510043448 12 50 20.9 20.9 0.00 0.00 0.00 82 1014.0
20260510042447 12 50 20.9 20.9 0.00 0.00 0.00 82 1014.0
20260510041447 12 50 20.9 20.9 0.00 0.00 0.00 82 1014.0
20260510035447 12 50 20.9 20.9 0.00 0.00 0.00 82 1014.0
20260510034447 12 60 19.3 19.3 0.00 0.00 0.00 82 1014.0
20260510033447 12 60 19.3 19.3 0.00 0.00 0.00 82 1014.0
20260510032447 12 60 19.3 19.3 0.00 0.00 0.00 82 1014.0
20260510031447 12 50 19.3 27.4 0.00 0.00 0.00 82 1014.0
20260510030448 12 50 19.3 27.4 0.00 0.00 0.00 82 1014.0
20260510025448 12 50 19.3 27.4 0.00 0.00 0.00 82 1014.0
20260510024448 12 50 19.3 27.4 0.00 0.00 0.00 82 1014.0
20260510023448 13 30 27.4 27.4 0.00 0.00 0.00 82 1015.0
20260510022448 13 30 27.4 27.4 0.00 0.00 0.00 82 1015.0
20260510021447 13 30 27.4 27.4 0.00 0.00 0.00 82 1015.0
20260510020447 13 30 27.4 27.4 0.00 0.00 0.00 82 1015.0
20260510015447 13 30 27.4 27.4 0.00 0.00 0.00 82 1015.0
20260510014447 13 30 27.4 27.4 0.00 0.00 0.00 82 1015.0
20260510013447 13 30 27.4 27.4 0.00 0.00 0.00 82 1015.0
20260510012447 13 30 27.4 27.4 0.00 0.00 0.00 82 1015.0
20260510011447 13 30 27.4 27.4 0.00 0.00 0.00 82 1015.0
20260510005448 13 30 27.4 27.4 0.00 0.00 0.00 82 1015.0
20260510004448 13 30 27.4 27.4 0.00 0.00 0.00 82 1015.0
20260510003448 13 30 27.4 27.4 0.00 0.00 0.00 82 1015.0
20260510002448 13 30 27.4 27.4 0.00 0.00 0.00 82 1015.0
20260510001448 13 30 27.4 27.4 0.00 0.00 0.00 82 1015.0
20260510000448 13 30 27.4 27.4 0.00 0.00 0.00 82 1015.0
20260509235447 13 30 27.4 27.4 0.00 0.00 0.00 82 1015.0
20260509234447 13 30 27.4 27.4 0.00 0.00 0.00 82 1015.0
20260509233447 13 30 27.4 27.4 0.00 0.00 0.00 82 1016.0
20260509232447 13 30 27.4 27.4 0.00 0.00 0.00 82 1016.0
20260509231447 13 30 27.4 27.4 0.00 0.00 0.00 82 1016.0
20260509230446 13 30 27.4 27.4 0.00 0.00 0.00 82 1016.0
20260509225447 13 30 27.4 27.4 0.00 0.00 0.00 82 1016.0
20260509224447 13 30 27.4 27.4 0.00 0.00 0.00 82 1016.0
20260509223447 13 30 27.4 27.4 0.00 0.00 0.00 82 1016.0
20260509222448 13 30 27.4 27.4 0.00 0.00 0.00 82 1016.0
20260509221447 13 30 27.4 27.4 0.00 0.00 0.00 82 1016.0
20260509220446 13 30 27.4 27.4 0.00 0.00 0.00 82 1016.0
20260509215446 13 30 27.4 27.4 0.00 0.00 0.00 82 1016.0
20260509214446 13 30 27.4 27.4 0.00 0.00 0.00 82 1016.0
20260509213446 13 20 22.5 22.5 0.00 0.00 0.00 82 1016.0
20260509212447 13 20 22.5 22.5 0.00 0.00 0.00 82 1016.0
20260509211445 13 20 22.5 22.5 0.00 0.00 0.00 82 1016.0
20260509210445 14 30 19.3 19.3 0.00 0.00 0.00 77 1016.0